GPS BIIR-9 (PRN 21)

Last updated on Wed Feb 05 2025 00:03:07 GMT+0000 (Coordinated Universal Time)

1 27704U 03010A 25035.31215064 -.00000088 00000+0 00000+0 0 9996 2 27704 55.0398 344.4137 0260627 334.0980 91.3308 2.00570855160124
UTC large
Height (km)
Speed (km/s)
/
Latitude / Longitude
Inclination (degrees)
Orbital Period (minutes)
Azimuth
Elevation
Range (km)
Doppler Factor

Next 0 passes for location: London (51.5072 / 0.1276)

Sorry there are no passes over London.
GPS BIIR-9 (PRN 21)